Time,TemperatureF,DewpointF,PressureIn,WindDirection,WindDirectionDegrees,WindSpeedMPH,WindSpeedGustMPH,Humidity,HourlyPrecipIn,Conditions,Clouds,dailyrainin,SoftwareType,DateUTC
2013-03-14 00:12:00,49.0,47.0,30.14,NW,319,0.0,0.0,93,0.00,,,0.00,,2013-03-14 04:12:00,
2013-03-14 00:22:00,50.0,48.0,30.14,NW,319,0.0,0.0,93,0.00,,,0.00,,2013-03-14 04:22:00,
2013-03-14 00:32:00,50.0,48.0,30.14,NW,326,0.0,0.0,93,0.00,,,0.00,,2013-03-14 04:32:00,
2013-03-14 00:42:00,50.0,48.0,30.14,NW,326,0.0,0.0,93,0.00,,,0.00,,2013-03-14 04:42:00,
2013-03-14 00:52:00,50.0,47.0,30.14,NW,326,0.0,0.0,91,0.00,,,0.00,,2013-03-14 04:52:00,
2013-03-14 01:02:00,49.0,46.0,30.14,NW,326,0.0,0.0,91,0.00,,,0.00,,2013-03-14 05:02:00,
2013-03-14 01:12:00,49.0,46.0,30.14,NW,326,0.0,0.0,91,0.00,,,0.00,,2013-03-14 05:12:00,
2013-03-14 01:22:00,49.0,46.0,30.14,NW,326,0.0,0.0,91,0.00,,,0.00,,2013-03-14 05:22:00,
2013-03-14 01:33:00,48.0,46.0,30.14,NW,326,0.0,0.0,92,0.00,,,0.00,,2013-03-14 05:33:00,
2013-03-14 01:42:00,48.0,46.0,30.14,NW,326,0.0,0.0,92,0.00,,,0.00,,2013-03-14 05:42:00,
2013-03-14 01:52:00,48.0,46.0,30.14,NW,326,0.0,0.0,92,0.00,,,0.00,,2013-03-14 05:52:00,
2013-03-14 02:02:00,48.0,46.0,30.14,NW,326,0.0,0.0,92,0.00,,,0.00,,2013-03-14 06:02:00,
2013-03-14 02:12:00,48.0,46.0,30.14,NW,326,0.0,0.0,92,0.00,,,0.00,,2013-03-14 06:12:00,
2013-03-14 02:22:00,47.0,45.0,30.13,NW,326,0.0,0.0,92,0.00,,,0.00,,2013-03-14 06:22:00,
2013-03-14 02:32:00,47.0,45.0,30.13,NW,326,0.0,0.0,92,0.00,,,0.00,,2013-03-14 06:32:00,
2013-03-14 02:42:00,47.0,45.0,30.13,NW,326,0.0,0.0,92,0.00,,,0.00,,2013-03-14 06:42:00,
2013-03-14 02:52:00,47.0,45.0,30.13,NW,326,0.0,0.0,93,0.00,,,0.00,,2013-03-14 06:52:00,
2013-03-14 03:02:00,47.0,45.0,30.13,NW,326,0.0,0.0,93,0.00,,,0.00,,2013-03-14 07:02:00,
2013-03-14 03:12:00,47.0,45.0,30.13,NW,326,0.0,0.0,93,0.00,,,0.00,,2013-03-14 07:12:00,
2013-03-14 03:22:00,46.0,44.0,30.12,NW,326,0.0,0.0,93,0.00,,,0.00,,2013-03-14 07:22:00,
2013-03-14 03:32:00,46.0,44.0,30.12,NW,326,0.0,0.0,93,0.00,,,0.00,,2013-03-14 07:32:00,
2013-03-14 03:42:00,46.0,44.0,30.12,NW,326,0.0,0.0,93,0.00,,,0.00,,2013-03-14 07:42:00,
2013-03-14 03:52:00,47.0,45.0,30.12,NW,306,0.0,0.0,92,0.00,,,0.00,,2013-03-14 07:52:00,
2013-03-14 04:02:00,47.0,45.0,30.11,NW,306,0.0,0.0,92,0.00,,,0.00,,2013-03-14 08:02:00,
2013-03-14 04:12:00,47.0,45.0,30.11,NW,306,0.0,0.0,92,0.00,,,0.00,,2013-03-14 08:12:00,
2013-03-14 04:22:00,47.0,45.0,30.12,NW,311,0.0,0.0,91,0.00,,,0.00,,2013-03-14 08:22:00,
2013-03-14 04:32:00,47.0,45.0,30.12,NW,324,0.0,2.0,91,0.00,,,0.00,,2013-03-14 08:32:00,
2013-03-14 04:42:00,47.0,45.0,30.12,NW,324,0.0,2.0,91,0.00,,,0.00,,2013-03-14 08:42:00,
2013-03-14 04:52:00,47.0,44.0,30.12,NNW,327,0.0,0.0,90,0.00,,,0.00,,2013-03-14 08:52:00,
2013-03-14 05:01:00,46.0,44.0,30.13,NW,313,0.0,2.0,91,0.00,,,0.00,,2013-03-14 09:01:00,
2013-03-14 05:12:00,46.0,44.0,30.13,NW,313,0.0,2.0,91,0.00,,,0.00,,2013-03-14 09:12:00,
2013-03-14 05:22:00,46.0,43.0,30.13,NW,311,1.0,2.0,88,0.00,,,0.00,,2013-03-14 09:22:00,
2013-03-14 05:32:00,46.0,42.0,30.13,NW,321,0.0,0.0,86,0.00,,,0.00,,2013-03-14 09:32:00,
2013-03-14 05:42:00,46.0,42.0,30.13,NW,321,0.0,0.0,86,0.00,,,0.00,,2013-03-14 09:42:00,
2013-03-14 05:52:00,46.0,41.0,30.14,NNW,336,0.0,1.0,82,0.00,,,0.00,,2013-03-14 09:52:00,
2013-03-14 06:02:00,47.0,41.0,30.14,NW,309,0.0,3.0,78,0.00,,,0.00,,2013-03-14 10:02:00,
2013-03-14 06:12:00,47.0,41.0,30.14,NW,309,0.0,3.0,78,0.00,,,0.00,,2013-03-14 10:12:00,
2013-03-14 06:22:00,47.0,40.0,30.14,NW,313,0.0,3.0,76,0.00,,,0.00,,2013-03-14 10:22:00,
2013-03-14 06:32:00,47.0,39.0,30.15,NW,313,1.0,3.0,74,0.00,,,0.00,,2013-03-14 10:32:00,
2013-03-14 06:42:00,47.0,39.0,30.15,NW,313,1.0,3.0,74,0.00,,,0.00,,2013-03-14 10:42:00,
2013-03-14 06:52:00,47.0,39.0,30.16,NW,319,1.0,3.0,73,0.00,,,0.00,,2013-03-14 10:52:00,
2013-03-14 07:02:00,47.0,39.0,30.17,NW,321,0.0,3.0,73,0.00,,,0.00,,2013-03-14 11:02:00,
2013-03-14 07:12:00,46.0,37.0,30.17,NW,323,0.0,2.0,72,0.00,,,0.00,,2013-03-14 11:12:00,
2013-03-14 07:22:00,46.0,37.0,30.17,NW,323,0.0,2.0,72,0.00,,,0.00,,2013-03-14 11:22:00,
2013-03-14 07:33:00,46.0,37.0,30.17,NNW,342,0.0,2.0,72,0.00,,,0.00,,2013-03-14 11:33:00,
2013-03-14 07:42:00,46.0,37.0,30.17,NNW,342,0.0,2.0,72,0.00,,,0.00,,2013-03-14 11:42:00,
2013-03-14 07:52:00,46.0,37.0,30.18,NW,317,1.0,3.0,70,0.00,,,0.00,,2013-03-14 11:52:00,
2013-03-14 08:02:00,46.0,36.0,30.18,WNW,300,1.0,5.0,69,0.00,,,0.00,,2013-03-14 12:02:00,
2013-03-14 08:12:00,46.0,36.0,30.18,WNW,300,1.0,5.0,69,0.00,,,0.00,,2013-03-14 12:12:00,
2013-03-14 08:22:00,47.0,37.0,30.19,NW,309,1.0,3.0,67,0.00,,,0.00,,2013-03-14 12:22:00,
2013-03-14 08:33:00,48.0,36.0,30.20,WNW,288,3.0,9.0,63,0.00,,,0.00,,2013-03-14 12:33:00,
2013-03-14 08:42:00,48.0,36.0,30.20,WNW,288,3.0,9.0,63,0.00,,,0.00,,2013-03-14 12:42:00,
2013-03-14 08:52:00,49.0,37.0,30.20,NW,318,4.0,12.0,62,0.00,,,0.00,,2013-03-14 12:52:00,
2013-03-14 09:02:00,50.0,37.0,30.20,NW,326,4.0,12.0,61,0.00,,,0.00,,2013-03-14 13:02:00,
2013-03-14 09:12:00,50.0,37.0,30.20,NW,326,4.0,12.0,61,0.00,,,0.00,,2013-03-14 13:12:00,
2013-03-14 09:22:00,51.0,38.0,30.21,NNW,328,6.0,14.0,60,0.00,,,0.00,,2013-03-14 13:22:00,
2013-03-14 09:32:00,52.0,39.0,30.22,North,350,3.0,10.0,61,0.00,,,0.00,,2013-03-14 13:32:00,
2013-03-14 09:42:00,52.0,39.0,30.22,North,350,3.0,10.0,61,0.00,,,0.00,,2013-03-14 13:42:00,
2013-03-14 09:52:00,53.0,39.0,30.22,NNW,332,3.0,14.0,59,0.00,,,0.00,,2013-03-14 13:52:00,
2013-03-14 10:02:00,54.0,39.0,30.22,NW,315,5.0,12.0,56,0.00,,,0.00,,2013-03-14 14:02:00,
2013-03-14 10:12:00,54.0,39.0,30.22,NW,315,5.0,12.0,56,0.00,,,0.00,,2013-03-14 14:12:00,
2013-03-14 10:22:00,56.0,40.0,30.22,NNW,343,4.0,12.0,54,0.00,,,0.00,,2013-03-14 14:22:00,
2013-03-14 10:32:00,57.0,40.0,30.22,NNE,25,2.0,9.0,53,0.00,,,0.00,,2013-03-14 14:32:00,
2013-03-14 10:42:00,57.0,40.0,30.22,NNE,25,2.0,9.0,53,0.00,,,0.00,,2013-03-14 14:42:00,
2013-03-14 10:53:00,58.0,39.0,30.22,NW,319,4.0,12.0,49,0.00,,,0.00,,2013-03-14 14:53:00,
2013-03-14 11:02:00,59.0,38.0,30.22,NNW,339,7.0,13.0,45,0.00,,,0.00,,2013-03-14 15:02:00,
2013-03-14 11:12:00,59.0,38.0,30.22,NNW,339,7.0,13.0,45,0.00,,,0.00,,2013-03-14 15:12:00,
2013-03-14 11:22:00,60.0,37.0,30.22,North,7,4.0,13.0,43,0.00,,,0.00,,2013-03-14 15:22:00,
2013-03-14 11:33:00,61.0,38.0,30.22,NNW,337,3.0,10.0,43,0.00,,,0.00,,2013-03-14 15:33:00,
2013-03-14 11:43:00,61.0,38.0,30.22,NNW,337,3.0,10.0,43,0.00,,,0.00,,2013-03-14 15:43:00,
2013-03-14 11:52:00,62.0,37.0,30.21,NW,306,4.0,13.0,40,0.00,,,0.00,,2013-03-14 15:52:00,
2013-03-14 12:03:00,63.0,38.0,30.22,NW,310,5.0,12.0,40,0.00,,,0.00,,2013-03-14 16:03:00,
2013-03-14 12:13:00,63.0,38.0,30.22,NW,310,5.0,12.0,40,0.00,,,0.00,,2013-03-14 16:13:00,
2013-03-14 12:23:00,63.0,40.0,30.21,NNW,329,2.0,6.0,43,0.00,,,0.00,,2013-03-14 16:23:00,
2013-03-14 12:32:00,63.0,39.0,30.21,NNE,24,5.0,10.0,41,0.00,,,0.00,,2013-03-14 16:32:00,
2013-03-14 12:42:00,63.0,39.0,30.21,NNE,24,5.0,10.0,41,0.00,,,0.00,,2013-03-14 16:42:00,
2013-03-14 12:52:00,64.0,42.0,30.21,NE,40,2.0,9.0,44,0.00,,,0.00,,2013-03-14 16:52:00,
2013-03-14 13:02:00,64.0,41.0,30.21,NE,47,5.0,16.0,43,0.00,,,0.00,,2013-03-14 17:02:00,
2013-03-14 13:12:00,64.0,41.0,30.21,NE,47,5.0,16.0,43,0.00,,,0.00,,2013-03-14 17:12:00,
2013-03-14 13:23:00,64.0,41.0,30.20,ENE,67,2.0,10.0,43,0.00,,,0.00,,2013-03-14 17:23:00,
2013-03-14 13:32:00,64.0,43.0,30.20,North,349,2.0,10.0,46,0.00,,,0.00,,2013-03-14 17:32:00,
2013-03-14 13:42:00,64.0,43.0,30.20,North,349,2.0,10.0,46,0.00,,,0.00,,2013-03-14 17:42:00,
2013-03-14 13:52:00,65.0,44.0,30.19,North,11,2.0,8.0,47,0.00,,,0.00,,2013-03-14 17:52:00,
2013-03-14 14:03:00,65.0,46.0,30.19,NNE,24,2.0,10.0,50,0.00,,,0.00,,2013-03-14 18:03:00,
2013-03-14 14:12:00,65.0,46.0,30.19,NNE,24,2.0,10.0,50,0.00,,,0.00,,2013-03-14 18:12:00,
2013-03-14 14:23:00,65.0,46.0,30.18,North,355,1.0,5.0,51,0.00,,,0.00,,2013-03-14 18:23:00,
2013-03-14 14:33:00,65.0,45.0,30.17,NE,34,2.0,9.0,48,0.00,,,0.00,,2013-03-14 18:33:00,
2013-03-14 14:43:00,65.0,45.0,30.17,NE,34,2.0,9.0,48,0.00,,,0.00,,2013-03-14 18:43:00,
2013-03-14 14:52:00,64.0,44.0,30.17,NE,44,3.0,12.0,49,0.00,,,0.00,,2013-03-14 18:52:00,
2013-03-14 15:03:00,65.0,44.0,30.17,NNE,31,3.0,8.0,47,0.00,,,0.00,,2013-03-14 19:03:00,
2013-03-14 15:12:00,65.0,44.0,30.17,NNE,31,3.0,8.0,47,0.00,,,0.00,,2013-03-14 19:12:00,
2013-03-14 15:23:00,64.0,44.0,30.17,NE,38,1.0,6.0,49,0.00,,,0.00,,2013-03-14 19:23:00,
2013-03-14 15:32:00,65.0,45.0,30.17,ENE,71,6.0,12.0,49,0.00,,,0.00,,2013-03-14 19:32:00,
2013-03-14 15:42:00,65.0,45.0,30.17,ENE,71,6.0,12.0,49,0.00,,,0.00,,2013-03-14 19:42:00,
2013-03-14 15:52:00,65.0,46.0,30.17,NE,41,5.0,13.0,51,0.00,,,0.00,,2013-03-14 19:52:00,
2013-03-14 16:02:00,65.0,47.0,30.16,East,85,2.0,12.0,52,0.00,,,0.00,,2013-03-14 20:02:00,
2013-03-14 16:12:00,65.0,47.0,30.16,East,85,2.0,12.0,52,0.00,,,0.00,,2013-03-14 20:12:00,
2013-03-14 16:22:00,64.0,45.0,30.16,ENE,65,5.0,15.0,50,0.00,,,0.00,,2013-03-14 20:22:00,
2013-03-14 16:32:00,64.0,46.0,30.16,East,90,5.0,15.0,52,0.00,,,0.00,,2013-03-14 20:32:00,
2013-03-14 16:42:00,64.0,46.0,30.16,East,90,5.0,15.0,52,0.00,,,0.00,,2013-03-14 20:42:00,
2013-03-14 16:52:00,64.0,46.0,30.17,NNE,28,3.0,12.0,52,0.00,,,0.00,,2013-03-14 20:52:00,
2013-03-14 17:02:00,63.0,46.0,30.16,NNE,22,3.0,7.0,53,0.00,,,0.00,,2013-03-14 21:02:00,
2013-03-14 17:12:00,63.0,46.0,30.16,NNE,22,3.0,7.0,53,0.00,,,0.00,,2013-03-14 21:12:00,
2013-03-14 17:22:00,62.0,44.0,30.16,NE,40,2.0,9.0,52,0.00,,,0.00,,2013-03-14 21:22:00,
2013-03-14 17:32:00,62.0,44.0,30.16,NNE,26,3.0,12.0,52,0.00,,,0.00,,2013-03-14 21:32:00,
2013-03-14 17:43:00,62.0,44.0,30.16,NNE,26,3.0,12.0,52,0.00,,,0.00,,2013-03-14 21:43:00,
2013-03-14 17:53:00,62.0,45.0,30.16,North,355,3.0,9.0,54,0.00,,,0.00,,2013-03-14 21:53:00,
2013-03-14 18:03:00,62.0,45.0,30.16,NE,34,3.0,9.0,53,0.00,,,0.00,,2013-03-14 22:03:00,
2013-03-14 18:13:00,62.0,45.0,30.16,NE,34,3.0,9.0,53,0.00,,,0.00,,2013-03-14 22:13:00,
2013-03-14 18:23:00,61.0,44.0,30.17,ENE,63,2.0,10.0,53,0.00,,,0.00,,2013-03-14 22:23:00,
2013-03-14 18:33:00,60.0,44.0,30.17,NE,34,3.0,15.0,56,0.00,,,0.00,,2013-03-14 22:33:00,
2013-03-14 18:42:00,60.0,44.0,30.17,NE,34,3.0,15.0,56,0.00,,,0.00,,2013-03-14 22:42:00,
2013-03-14 18:52:00,59.0,43.0,30.17,ENE,63,3.0,12.0,55,0.00,,,0.00,,2013-03-14 22:52:00,
2013-03-14 19:03:00,59.0,44.0,30.18,NNE,20,2.0,9.0,57,0.00,,,0.00,,2013-03-14 23:03:00,
2013-03-14 19:12:00,59.0,44.0,30.18,NNE,20,2.0,9.0,57,0.00,,,0.00,,2013-03-14 23:12:00,
2013-03-14 19:22:00,58.0,45.0,30.18,East,88,2.0,5.0,61,0.00,,,0.00,,2013-03-14 23:22:00,
2013-03-14 19:33:00,56.0,45.0,30.18,NNE,18,0.0,6.0,67,0.00,,,0.00,,2013-03-14 23:33:00,
2013-03-14 19:42:00,56.0,45.0,30.18,NNE,18,0.0,6.0,67,0.00,,,0.00,,2013-03-14 23:42:00,
2013-03-14 19:53:00,55.0,45.0,30.18,NE,40,1.0,6.0,69,0.00,,,0.00,,2013-03-14 23:53:00,
2013-03-14 20:02:00,54.0,44.0,30.18,NNE,26,0.0,2.0,70,0.00,,,0.00,,2013-03-15 00:02:00,
2013-03-14 20:12:00,54.0,45.0,30.18,NE,35,0.0,2.0,72,0.00,,,0.00,,2013-03-15 00:12:00,
2013-03-14 20:23:00,54.0,45.0,30.18,NE,35,0.0,2.0,72,0.00,,,0.00,,2013-03-15 00:23:00,
2013-03-14 20:32:00,53.0,44.0,30.18,ENE,61,0.0,1.0,72,0.00,,,0.00,,2013-03-15 00:32:00,
2013-03-14 20:42:00,53.0,44.0,30.18,ENE,61,0.0,1.0,72,0.00,,,0.00,,2013-03-15 00:42:00,
2013-03-14 20:52:00,52.0,44.0,30.19,NE,45,0.0,0.0,74,0.00,,,0.00,,2013-03-15 00:52:00,
2013-03-14 21:02:00,52.0,44.0,30.19,NE,37,0.0,1.0,75,0.00,,,0.00,,2013-03-15 01:02:00,
2013-03-14 21:12:00,52.0,44.0,30.19,NE,37,0.0,1.0,75,0.00,,,0.00,,2013-03-15 01:12:00,
2013-03-14 21:22:00,51.0,44.0,30.19,NE,44,0.0,0.0,77,0.00,,,0.00,,2013-03-15 01:22:00,
2013-03-14 21:32:00,51.0,44.0,30.20,NE,46,0.0,0.0,78,0.00,,,0.00,,2013-03-15 01:32:00,
2013-03-14 21:42:00,51.0,44.0,30.20,NE,46,0.0,0.0,78,0.00,,,0.00,,2013-03-15 01:42:00,
2013-03-14 21:52:00,50.0,44.0,30.20,NE,46,0.0,0.0,80,0.00,,,0.00,,2013-03-15 01:52:00,
2013-03-14 22:02:00,48.0,43.0,30.21,NE,46,0.0,0.0,83,0.00,,,0.00,,2013-03-15 02:02:00,
2013-03-14 22:12:00,48.0,43.0,30.21,NE,46,0.0,0.0,83,0.00,,,0.00,,2013-03-15 02:12:00,
2013-03-14 22:22:00,48.0,43.0,30.21,NE,46,0.0,0.0,83,0.00,,,0.00,,2013-03-15 02:22:00,
2013-03-14 22:32:00,46.0,43.0,30.20,NE,46,0.0,0.0,89,0.00,,,0.00,,2013-03-15 02:32:00,
2013-03-14 22:42:00,46.0,43.0,30.20,NE,46,0.0,0.0,89,0.00,,,0.00,,2013-03-15 02:42:00,
2013-03-14 22:52:00,45.0,42.0,30.22,NE,46,0.0,0.0,90,0.00,,,0.00,,2013-03-15 02:52:00,
2013-03-14 23:02:00,45.0,43.0,30.23,NE,46,0.0,0.0,92,0.00,,,0.00,,2013-03-15 03:02:00,
2013-03-14 23:12:00,45.0,43.0,30.23,NE,46,0.0,0.0,92,0.00,,,0.00,,2013-03-15 03:12:00,
2013-03-14 23:22:00,45.0,43.0,30.22,NE,46,0.0,0.0,92,0.00,,,0.00,,2013-03-15 03:22:00,
2013-03-14 23:33:00,45.0,43.0,30.22,NE,46,0.0,0.0,92,0.00,,,0.00,,2013-03-15 03:33:00,
2013-03-14 23:43:00,45.0,43.0,30.22,NE,46,0.0,0.0,92,0.00,,,0.00,,2013-03-15 03:43:00,
2013-03-14 23:52:00,45.0,43.0,30.22,NE,46,0.0,0.0,92,0.00,,,0.00,,2013-03-15 03:52:00,